Hickory, NC

10:48 PM EST on December 12, 2017 (GMT -0500)
Hickory Regional

Weather History for KHKY - November, 2014

Change the Weather History Date:

Saturday, November 15, 2014

  Actual Average Record
Temperature  
Mean Temperature 32 °F -  
Max Temperature 42 °F 60 °F 78 °F (1953)
Min Temperature 21 °F 37 °F 18 °F (1969)
Degree Days  
Heating Degree Days 34    
Moisture  
Dew Point 13 °F    
Average Humidity 49    
Maximum Humidity 73    
Minimum Humidity 27    
Precipitation  
Precipitation 0.00 in - - ()
Sea Level Pressure  
Sea Level Pressure 30.35 in    
Wind  
Wind Speed 2 mph (NNW)    
Max Wind Speed 6 mph    
Max Gust Speed -    
Visibility 10 miles    
Events      
Averages and records for this station are not official NWS values.
T = Trace of Precipitation, MM = Missing Value Source: NWS Daily Summary

Daily Weather History Graph

Daily Weather History Graph

Search for Another Location

Airport or City:

Trip Planner

Search our weather history database for the weather conditions in past years. The results will help you decide how hot, cold, wet, or windy it might be!

Date:

Astronomy

Nov. 15, 2014 Rise Set
Actual Time 7:01 AM EST 5:18 PM EST
Civil Twilight 6:34 AM EST 5:45 PM EST
Nautical Twilight 6:03 AM EST 6:16 PM EST
Astronomical Twilight 5:33 AM EST 6:46 PM EST
Moon 12:25 AM EST (11/15) 1:28 PM EST (11/15)
Length of Visible Light 11h 11m
Length of Day
10h 16m
Last Quarter, 40% of the Moon is Illuminated
Nov 15
Last Quarter
Nov 22
New
Nov 29
First Quarter
Dec 6
Full
Dec 14
Last Quarter

Hourly Weather History & Observations

Time (EST) Temp. Windchill Dew Point Humidity Pressure Visibility Wind Dir Wind Speed Gust Speed Precip Events Conditions
12:53 AM 26.1 °F 19.4 °F 12.0 °F 55% 30.32 in 10.0 mi North 5.8 mph - N/A   Clear
1:53 AM 24.1 °F 19.7 °F 12.0 °F 60% 30.33 in 10.0 mi NNW 3.5 mph - N/A   Clear
2:53 AM 23.0 °F - 10.9 °F 60% 30.34 in 10.0 mi Calm Calm - N/A   Clear
3:53 AM 21.0 °F - 10.9 °F 65% 30.33 in 10.0 mi Calm Calm - N/A   Clear
4:53 AM 21.9 °F - 12.0 °F 66% 30.36 in 10.0 mi Calm Calm - N/A   Clear
5:53 AM 21.9 °F - 10.0 °F 60% 30.37 in 10.0 mi Calm Calm - N/A   Clear
6:53 AM 21.9 °F 17.2 °F 10.9 °F 63% 30.40 in 10.0 mi NW 3.5 mph - N/A   Clear
7:53 AM 23.0 °F 15.8 °F 12.9 °F 65% 30.41 in 10.0 mi NW 5.8 mph - N/A   Clear
8:53 AM 28.0 °F 24.2 °F 16.0 °F 61% 30.43 in 10.0 mi Variable 3.5 mph - N/A   Clear
9:53 AM 32.0 °F 28.7 °F 12.9 °F 45% 30.44 in 10.0 mi North 3.5 mph - N/A   Clear
10:53 AM 35.1 °F - 10.9 °F 37% 30.42 in 10.0 mi Calm Calm - N/A   Clear
11:53 AM 37.9 °F 34.4 °F 10.9 °F 33% 30.40 in 10.0 mi ENE 4.6 mph - N/A   Clear
12:53 PM 37.9 °F 35.5 °F 10.9 °F 33% 30.37 in 10.0 mi Variable 3.5 mph - N/A   Clear
1:53 PM 42.1 °F 40.2 °F 12.0 °F 29% 30.33 in 10.0 mi Variable 3.5 mph - N/A   Clear
2:53 PM 41.0 °F - 10.0 °F 28% 30.32 in 10.0 mi Calm Calm - N/A   Clear
3:53 PM 42.1 °F - 10.0 °F 27% 30.31 in 10.0 mi Calm Calm - N/A   Clear
4:53 PM 39.9 °F - 12.0 °F 32% 30.32 in 10.0 mi Calm Calm - N/A   Clear
5:53 PM 37.0 °F - 12.0 °F 36% 30.32 in 10.0 mi Calm Calm - N/A   Clear
6:53 PM 36.0 °F - 12.9 °F 39% 30.33 in 10.0 mi Calm Calm - N/A   Clear
7:53 PM 35.1 °F - 12.9 °F 40% 30.32 in 10.0 mi Calm Calm - N/A   Clear
8:53 PM 33.1 °F - 14.0 °F 46% 30.33 in 10.0 mi Calm Calm - N/A   Clear
9:53 PM 30.9 °F - 15.1 °F 52% 30.34 in 10.0 mi Calm Calm - N/A   Clear
10:53 PM 30.0 °F - 18.0 °F 61% 30.34 in 10.0 mi Calm Calm - N/A   Clear
11:53 PM 32.0 °F - 24.1 °F 73% 30.33 in 10.0 mi Calm Calm - N/A   Overcast